Location: Chicago
(41.8500°N, 87.6500°W)
Time: 10:44:21
(UTC-05:00)

ISS - Visible Passes

Search period start: 26 May 2015 00:00
Search period end: 05 June 2015 00:00
Orbit: 399 x 404 km, 51.6° (Epoch: 26 May)

Date Brightness Start Highest point End Pass type
(mag) Time Alt. Az. Time Alt. Az. Time Alt. Az.
26 May -0.2 00:45:58 11° NE 00:45:58 11° NE 00:46:06 10° NE visible
26 May -0.8 02:18:31 16° NW 02:19:43 19° NNW 02:22:07 10° NNE visible
26 May -0.3 03:55:01 10° NNW 03:57:03 15° N 03:59:05 10° NE visible
27 May -0.9 01:26:46 23° N 01:26:46 23° N 01:29:01 10° NE visible
27 May -0.3 03:01:35 10° NW 03:03:32 15° N 03:05:29 10° NE visible
27 May -0.8 04:38:04 10° NW 04:40:47 24° NNE 04:43:31 10° ENE visible
28 May -0.6 00:34:53 18° NNE 00:34:53 18° NNE 00:35:56 10° NE visible
28 May -0.3 02:07:57 10° NW 02:10:01 15° N 02:12:03 10° NNE visible
28 May -0.4 03:44:57 10° NNW 03:47:19 18° NNE 03:49:44 10° ENE visible
28 May -0.3 23:42:45 10° NE 23:42:45 10° NE 23:42:47 10° NE visible
29 May -0.5 01:15:16 15° NW 01:16:29 18° NNW 01:18:48 10° NNE visible
29 May -0.2 02:51:44 10° NNW 02:53:49 16° N 02:55:55 10° NE visible
29 May -1.7 04:27:49 10° NW 04:30:54 38° NNE 04:34:00 10° E visible
30 May -0.9 00:22:30 22° NNW 00:22:59 23° NNW 00:25:39 10° NE visible
30 May -0.1 01:58:20 10° NW 02:00:16 15° N 02:02:13 10° NE visible
30 May -0.9 03:34:42 10° NW 03:37:30 26° NNE 03:40:18 10° E visible
30 May -2.8 21:50:08 10° SSW 21:53:07 35° SE 21:56:08 10° ENE visible
30 May -1.5 23:26:35 10° W 23:29:33 32° NNW 23:32:31 10° NE visible
31 May -0.1 01:04:42 10° NW 01:06:42 15° N 01:08:42 10° NNE visible
31 May -0.4 02:41:34 10° NNW 02:44:01 19° NNE 02:46:29 10° ENE visible
31 May -3.2 04:17:35 10° NW 04:20:51 77° NNE 04:24:07 10° ESE visible
31 May -1.9 20:57:40 10° S 20:59:59 19° SE 21:02:21 10° E visible
31 May -2.5 22:32:59 10° WSW 22:36:10 52° NNW 22:39:22 10° NE visible
01 Jun -0.3 00:10:53 10° NW 00:13:08 17° N 00:15:23 10° NNE visible
01 Jun -0.2 01:48:20 10° NNW 01:50:28 16° N 01:52:38 10° NE visible
01 Jun -2.0 03:24:23 10° NW 03:27:31 43° NNE 03:30:39 10° ESE visible
01 Jun -3.5 21:39:38 10° SW 21:42:51 85° SE 21:46:07 10° NE visible
01 Jun -0.6 23:17:02 10° WNW 23:19:36 21° NNW 23:22:11 10° NE visible
02 Jun 0.0 00:54:57 10° NW 00:56:54 15° N 00:58:50 10° NE visible
02 Jun -1.1 02:31:13 10° NW 02:34:05 28° NNE 02:36:58 10° E visible
02 Jun -3.1 04:07:29 10° WNW 04:10:37 46° SW 04:13:45 10° SSE visible
02 Jun -1.2 22:23:13 10° W 22:26:07 29° NNW 22:29:01 10° NE visible
03 Jun 0.0 00:01:20 10° NW 00:03:18 15° N 00:05:15 10° NNE visible
03 Jun -0.6 01:38:04 10° NW 01:40:36 20° NNE 01:43:08 10° ENE visible
03 Jun -3.4 03:14:06 10° NW 03:17:23 89° ENE 03:20:38 10° SE visible
03 Jun -2.1 21:29:33 10° WSW 21:32:40 45° NNW 21:35:49 10° NE visible
03 Jun -0.2 23:07:31 10° NW 23:09:41 16° N 23:11:51 10° NNE visible
04 Jun -0.3 00:44:49 10° NNW 00:47:01 17° N 00:49:15 10° NE visible
04 Jun -2.4 02:20:50 10° NW 02:24:01 48° NNE 02:25:52 21° E visible
04 Jun -1.1 04:02:27 11° S 04:02:27 11° S 04:02:41 10° S visible
04 Jun -0.5 22:13:37 10° WNW 22:16:07 20° NNW 22:18:36 10° NE visible
04 Jun -0.1 23:51:26 10° NNW 23:53:25 15° N 23:55:23 10° NE visible
